Location: Bettgenhausen
(50.6463°N, 7.5681°E)
Time: 08:08:37
(UTC+00:00)

ARGOS - Pass Details

Date: 27 February 2020
Orbit: 819 x 835 km, 98.5° (Epoch: 03 April)

Event Time Altitude Azimuth Distance (km) Brightness Sun altitude
Exits shadow 19:04:37 - 164° (SSE) 2,683 5.6 -19.4°
Reaches altitude 10° 19:05:14 10° 164° (SSE) 2,442 5.3 -19.5°
Maximum altitude 19:10:39 88° 251° (WSW) 844 3.1 -20.3°
Drops below altitude 10° 19:16:08 10° 345° (NNW) 2,460 6.0 -21.2°
Sets 19:18:30 0° 346° (NNW) 3,397 6.7 -21.5°
